Location: Albuquerque Trailhead
(34.7934°N, 106.3736°W)
Time: 16:23:26
(UTC+00:00)

SPOT 3 Rocket - Pass Details

Date: 20 June 2021
Orbit: 779 x 794 km, 98.7° (Epoch: 26 July)

Event Time Altitude Azimuth Distance (km) Brightness Sun altitude
Exits shadow 04:22:37 23° 193° (SSW) 1,624 4.8 -19.9°
Maximum altitude 04:25:41 52° 260° (W) 976 4.2 -20.3°
Drops below altitude 10° 04:30:44 10° 336° (NNW) 2,353 7.1 -21.0°
Sets 04:33:08 0° 341° (NNW) 3,288 8.0 -21.3°
